Location: Doux
(49.5045°N, 4.4321°E)
Time: 13:50:48
(UTC+00:00)

SL-16 R/B - Pass Details

Date: 23 May 2024
Orbit: 842 x 845 km, 71.0° (Epoch: 16 June)

Event Time Altitude Azimuth Distance (km) Brightness Sun altitude
Rises 01:34:47 0° 329° (NNW) 3,417 5.8 -15.3°
Reaches altitude 10° 01:37:15 10° 327° (NNW) 2,478 5.0 -15.1°
Maximum altitude 01:42:54 68° 246° (WSW) 910 2.2 -14.7°
Drops below altitude 10° 01:48:30 10° 164° (SSE) 2,461 4.2 -14.2°
Enters shadow 01:49:01 - 164° (SSE) 2,654 4.4 -14.1°
